Flag for U.S.A. Weather past 2 weeks in Bloomington, Indiana, U.S.A.

Now
13 °F

Overcast.


Feels Like: 4 °F
Forecast: 7 / 28 °F
Wind: 6 mph from Southeast

Location: Monroe County Airport

Current Time: Feb 28, 2015 at 9:00:59 AM

Latest Report: Feb 28, 2015 at 7:53 AM


Visibility: 10 mi

Pressure: 30.72 "Hg

Humidity: 61%

Dew point: 2 °F

Location of BloomingtonLocation

Historic Weather in Bloomington — Graph

°F

Bloomington temperature yesterday

Maximum temperature yesterday: 22 °F (at 4:53 PM)
Minimum temperature yesterday: -7 °F (at 6:53 AM)
Average temperature yesterday: 9 °F

Past Weeks' High & Low Weather Summary

 TemperatureHumidityPressure
High37 °F (Feb 25, 3:53 PM)96% (Feb 21, 3:53 AM)30.72 "Hg (Feb 21, 3:53 AM)
Low-13 °F (Feb 24, 6:53 AM)34% (Feb 15, 8:53 PM)29.82 "Hg (Feb 18, 4:00 AM)
Average15 °F68%30.23 "Hg
* Reported Feb 13 7:53 AM — Feb 28 7:53 AM, Bloomington, Weather by CustomWeather, © 2015

Note: Actual official high and low records may vary slightly from our data, if they occured in-between our weather recording intervals... More about our weather records

Advertising

Bloomington weather history for previous 24 hours

 ConditionsComfort  
Time TempWeatherWind HumidityBarometerVisibility
7:53 AM
Sat, Feb 28
13 °FOvercast.6 mph61%30.72 "Hg10 mi
6:53 AM13 °FMostly cloudy.6 mph61%30.71 "Hg10 mi
5:53 AM13 °FPassing clouds.5 mph61%30.69 "Hg10 mi
4:53 AM10 °FPassing clouds.5 mph64%30.67 "Hg10 mi
3:53 AM10 °FPassing clouds.5 mph64%30.67 "Hg10 mi
2:53 AM9 °FPassing clouds.No wind64%30.68 "Hg10 mi
1:53 AM10 °FPassing clouds.No wind61%30.68 "Hg10 mi
12:53 AM3 °FPassing clouds.No wind79%30.69 "Hg9 mi
11:53 PM
Fri, Feb 27
2 °FClear.No wind80%30.70 "Hg10 mi
10:53 PM5 °FClear.No wind69%30.69 "Hg10 mi
9:53 PM10 °FClear.5 mph61%30.69 "Hg10 mi
8:53 PM11 °FClear.6 mph61%30.68 "Hg10 mi
7:53 PM13 °FClear.5 mph59%30.68 "Hg10 mi
6:53 PM16 °FClear.6 mph49%30.66 "Hg10 mi
5:53 PM21 °FSunny.No wind38%30.64 "Hg10 mi
4:53 PM22 °FSunny.5 mph36%30.62 "Hg10 mi
3:53 PM21 °FScattered clouds.7 mph40%30.63 "Hg10 mi
2:53 PM20 °FScattered clouds.6 mph45%30.62 "Hg10 mi
1:53 PM19 °FScattered clouds.No wind45%30.63 "Hg10 mi
12:53 PM19 °FOvercast.6 mph47%30.64 "Hg10 mi
11:53 AM17 °FScattered clouds.3 mph49%30.65 "Hg10 mi
10:53 AM15 °FSunny.6 mph51%30.64 "Hg10 mi
9:53 AM11 °FSunny.5 mph64%30.62 "Hg9 mi
Weather by CustomWeather, © 2015

See weather overviewHow to use our weather pages